[[{"header":{"parameterUnit":"m.s-1","parameterCategory":1,"la1":30.2991,"la2":30.254,"lo1":-89.0895,"lo2":-89.0444,"dy":0.0017,"dx":0.0017,"nx":28,"ny":28,"refTime":"2025-05-23T21:00:00:Z","depth":0,"parameterNumber":2,"parameterNumberName":"U-component_of_WINDS"},"data":[0,0,0,0,0,0,0,0,0,0,0,0,0,0,0,0,0,0,0,0,0,0,0,0,0,0,0,0,0,0,0,0,0,0,0,0,0,0,0,0,0,0,0,0,0,0,0,0,0,0,0,0,0,0,0,0,0,0,-0.7057,-0.7057,0,-0.7059,-0.7059,-0.7059,-0.7044,-0.7043,-0.7043,-0.7042,-0.7044,-0.7044,-0.7045,0,0,0,0,0,0,0,0,0,0,0,0,0,-0.7041,-0.7042,-0.7057,-0.7057,-0.7057,-0.7059,-0.7059,-0.7059,-0.7044,-0.7043,-0.7043,-0.7042,-0.7044,-0.7044,-0.7045,0,0,0,0,0,0,0,0,0,0,0,0,0,-0.7046,-0.7042,-0.7057,-0.705,-0.7049,-0.7059,-0.7059,-0.7059,-0.7044,-0.7043,-0.7043,-0.7042,-0.7044,-0.7044,-0.7045,-0.7062,0,0,-0.7047,-0.7047,0,0,0,0,0,0,0,0,-0.7046,-0.7047,-0.7051,-0.705,-0.705,-0.7051,-0.7054,-0.706,-0.7044,-0.7046,-0.7042,-0.7042,-0.7047,-0.7047,-0.7049,-0.7062,-0.7062,-0.7047,-0.7047,-0.7048,-0.7048,0,0,0,0,0,0,0,-0.7046,-0.7047,-0.7058,-0.7051,-0.705,-0.7047,-0.7047,-0.7055,-0.705,-0.7046,-0.7045,-0.7045,-0.7046,-0.7048,-0.7049,-0.7062,-0.7047,-0.7047,-0.7048,-0.7048,-0.7091,-0.7092,0,0,0,0,0,0,-0.7046,-0.7047,-0.7058,-0.7058,-0.7046,-0.7048,-0.7048,-0.7051,-0.705,-0.7049,-0.7046,-0.7044,-0.7047,-0.7048,-0.7049,-0.7069,-0.7048,-0.7048,-0.7049,-0.709,-0.7091,-0.7092,0,0,0,0,0,0,-0.7046,-0.7048,-0.7058,-0.7052,-0.7053,-0.7049,-0.7052,-0.7051,-0.7053,-0.705,-0.7049,-0.7049,-0.7047,-0.7048,-0.7059,-0.7069,-0.7048,-0.7049,-0.7089,-0.7091,-0.7092,-0.711,0,0,0,0,0,0,-0.7046,-0.7048,-0.7053,-0.7052,-0.7054,-0.7068,-0.7053,-0.7052,-0.7054,-0.7053,-0.7052,-0.7051,-0.7046,-0.7058,-0.706,-0.707,-0.705,-0.7088,-0.709,-0.7091,-0.7109,-0.7112,-0.7115,0,0,0,0,0,-0.7045,-0.7058,-0.7054,-0.7055,-0.7061,-0.7069,-0.7069,-0.7063,-0.7055,-0.7062,-0.706,-0.7051,-0.7068,-0.7059,-0.7061,-0.7071,-0.7088,-0.709,-0.7091,-0.7107,-0.7111,-0.7115,0,0,0,0,0,0,-0.706,-0.7058,-0.7053,-0.7066,-0.7068,-0.7066,-0.7073,-0.7067,-0.7071,-0.7069,-0.7062,-0.7062,-0.7075,-0.7074,-0.7065,-0.7089,-0.7077,-0.7079,-0.7088,-0.7092,-0.7095,-0.7095,-0.705,0,0,0,0,0,-0.7065,-0.7071,-0.7069,-0.7081,-0.7082,-0.7078,-0.7081,-0.7076,-0.7078,-0.7078,-0.7077,-0.7079,-0.7085,-0.7088,-0.7093,-0.7109,-0.7109,-0.7117,-0.712,-0.7123,-0.7124,-0.7134,-0.7138,-0.7098,-0.7098,-0.7098,0,0,-0.7075,-0.7074,-0.7079,-0.7084,-0.7084,-0.7092,-0.7078,-0.7086,-0.7091,-0.7079,-0.709,-0.709,-0.7091,-0.7105,-0.7112,-0.7105,-0.7136,-0.7125,-0.7127,-0.7127,-0.7136,-0.714,-0.7143,-0.7099,-0.7099,-0.7098,0,0,-0.7096,-0.7096,-0.7107,-0.7108,-0.711,-0.7108,-0.711,-0.711,-0.7109,-0.712,-0.7112,-0.7119,-0.7128,-0.713,-0.7133,-0.7158,-0.7151,-0.716,-0.7175,-0.7184,-0.7188,-0.719,-0.72,-0.7203,-0.7161,-0.7162,-0.7162,0,-0.7108,-0.7118,-0.7113,-0.7122,-0.7125,-0.7115,-0.7126,-0.7128,-0.7131,-0.7134,-0.7127,-0.714,-0.714,-0.7156,-0.7162,-0.7164,-0.7167,-0.7159,-0.7188,-0.719,-0.7193,-0.7202,-0.7206,-0.7163,-0.7163,-0.7162,-0.7162,0,-0.7133,-0.7141,-0.7149,-0.7153,-0.7157,-0.7167,-0.7164,-0.7169,-0.7165,-0.7163,-0.7176,-0.7176,-0.7182,-0.7185,-0.7181,-0.72,-0.7196,-0.7189,-0.7176,-0.7198,-0.7206,-0.721,-0.7164,-0.7164,-0.7164,-0.7163,0,0,-0.7163,-0.7165,-0.7168,-0.7171,-0.7173,-0.7179,-0.7189,-0.7195,-0.72,-0.7203,-0.7212,-0.7222,-0.7215,-0.7218,-0.7214,-0.7223,-0.7244,-0.7214,-0.7214,-0.722,-0.7267,-0.7272,-0.7276,-0.724,-0.724,-0.7241,-0.7267,0,-0.7184,-0.7201,-0.7198,-0.7215,-0.7222,-0.7214,-0.7223,-0.7226,-0.7226,-0.7233,-0.7232,-0.7239,-0.723,-0.7232,-0.724,-0.724,-0.7253,-0.7238,-0.7248,-0.7249,-0.7248,-0.7281,-0.7286,-0.731,-0.727,-0.727,-0.7271,0,-0.7211,-0.7216,-0.7234,-0.7237,-0.724,-0.7248,-0.7254,-0.7261,-0.7264,-0.7264,-0.7268,-0.7263,-0.7274,-0.7262,-0.7278,-0.7268,-0.7272,-0.7273,-0.7274,-0.7274,-0.7261,-0.7282,-0.7318,-0.7322,-0.7276,-0.7275,-0.7275,0,-0.7231,-0.7243,-0.7255,-0.7258,-0.7261,-0.7267,-0.7269,-0.7272,-0.7276,-0.7282,-0.7285,-0.7292,-0.7296,-0.7302,-0.7299,-0.7291,-0.7316,-0.7304,-0.7316,-0.7316,-0.7321,-0.7321,-0.7358,-0.7324,-0.7324,-0.7324,-0.7324,0,-0.7255,-0.7267,-0.7265,-0.7272,-0.7285,-0.7282,-0.7295,-0.7296,-0.7299,-0.7308,-0.7301,-0.731,-0.7306,-0.7314,-0.7312,-0.7326,-0.7328,-0.7328,-0.7328,-0.7329,-0.7329,-0.7331,-0.7329,-0.7325,-0.7325,-0.7325,-0.7324,0,-0.728,-0.7279,-0.7292,-0.7295,-0.7296,-0.7305,-0.7308,-0.7316,-0.7316,-0.7326,-0.7329,-0.7329,-0.7338,-0.7337,-0.7347,-0.7346,-0.7364,-0.7361,-0.7362,-0.7362,-0.7374,-0.7373,-0.7414,-0.742,-0.7382,-0.7383,-0.7383,0,-0.7295,-0.7304,-0.7308,-0.7313,-0.7316,-0.7324,-0.7329,-0.7327,-0.7332,-0.7338,-0.7346,-0.7355,-0.7362,-0.7378,-0.7379,-0.7387,-0.7385,-0.7399,-0.7386,-0.7387,-0.7386,-0.7385,-0.7386,-0.7401,-0.7401,-0.7402,-0.7402,0,-0.7323,-0.7322,-0.733,-0.7337,-0.7344,-0.735,-0.7355,-0.736,-0.7358,-0.7365,-0.7375,-0.738,-0.7392,-0.7401,-0.741,-0.7412,-0.7407,-0.7406,-0.741,-0.7411,-0.7411,-0.7412,-0.7369,-0.7405,-0.7405,-0.7405,-0.7404,-0.7404,-0.7343,-0.7351,-0.7356,-0.7365,-0.7369,-0.7375,-0.7382,-0.7384,-0.7392,-0.7401,-0.74,-0.7411,-0.7417,-0.7427,-0.7431,-0.744,-0.7435,-0.744,-0.7441,-0.7442,-0.7444,-0.741,-0.7442,-0.7442,-0.7442,-0.7442,-0.7442,0,-0.7371,-0.7374,-0.7383,-0.7391,-0.7398,-0.7393,-0.74,-0.7406,-0.7416,-0.7422,-0.743,-0.7442,-0.7452,-0.7454,-0.7464,-0.7471,-0.747,-0.7474,-0.7473,-0.7474,-0.7448,-0.7444,-0.7475,-0.7475,-0.7475,-0.7475,-0.7475,-0.7475,-0.7387,-0.74,-0.7401,-0.7417,-0.742,-0.7431,-0.7435,-0.7441,-0.7445,-0.746,-0.7468,-0.747,-0.7475,-0.7485,-0.7494,-0.7495,-0.7499,-0.7504,-0.7504,-0.7479,-0.7476,-0.7473,-0.7469,-0.7505,-0.7505,-0.753,-0.753,-0.753]},{"header":{"parameterUnit":"m.s-1","parameterCategory":1,"la1":30.2991,"la2":30.254,"lo1":-89.0895,"lo2":-89.0444,"dy":0.0017,"dx":0.0017,"nx":28,"ny":28,"refTime":"2025-05-23T21:00:00:Z","depth":0,"parameterNumber":3,"parameterNumberName":"V-component_of_WINDS"},"data":[0,0,0,0,0,0,0,0,0,0,0,0,0,0,0,0,0,0,0,0,0,0,0,0,0,0,0,0,0,0,0,0,0,0,0,0,0,0,0,0,0,0,0,0,0,0,0,0,0,0,0,0,0,0,0,0,0,0,3.0442,3.0442,0,3.0463,3.0463,3.0463,3.0553,3.0555,3.0557,3.0559,3.0575,3.0573,3.0572,0,0,0,0,0,0,0,0,0,0,0,0,0,3.0473,3.0472,3.0442,3.0442,3.0442,3.0463,3.0463,3.0463,3.0553,3.0555,3.0558,3.056,3.0575,3.0574,3.0572,0,0,0,0,0,0,0,0,0,0,0,0,0,3.0473,3.0472,3.0442,3.0489,3.0494,3.0463,3.0463,3.0463,3.0552,3.0556,3.0559,3.0562,3.0576,3.0574,3.0571,3.0494,0,0,3.0564,3.0563,0,0,0,0,0,0,0,0,3.0473,3.0472,3.0482,3.0486,3.0491,3.0509,3.048,3.0473,3.0552,3.053,3.056,3.0563,3.055,3.055,3.0547,3.0495,3.0495,3.0564,3.0563,3.0562,3.0561,0,0,0,0,0,0,0,3.0473,3.0472,3.045,3.0482,3.0488,3.0508,3.0512,3.0479,3.0522,3.0532,3.0539,3.054,3.0553,3.0549,3.0548,3.0495,3.0564,3.0562,3.0561,3.056,3.038,3.0377,0,0,0,0,0,0,3.0467,3.0471,3.0449,3.0451,3.049,3.0505,3.0509,3.05,3.0522,3.0529,3.0538,3.0544,3.0551,3.055,3.0549,3.0458,3.0562,3.056,3.0558,3.0383,3.0379,3.0376,0,0,0,0,0,0,3.0468,3.0464,3.0448,3.0463,3.0462,3.0501,3.049,3.0499,3.0495,3.0527,3.0534,3.0526,3.0554,3.0552,3.0507,3.046,3.0559,3.0556,3.0387,3.0382,3.0377,3.0276,0,0,0,0,0,0,3.0468,3.0464,3.0436,3.0461,3.0461,3.0407,3.0487,3.0497,3.0491,3.05,3.0518,3.0523,3.0556,3.051,3.0505,3.0458,3.0555,3.0392,3.0385,3.0379,3.0284,3.0269,3.0255,0,0,0,0,0,3.0469,3.0405,3.0434,3.0431,3.0427,3.0405,3.0404,3.0445,3.0487,3.0458,3.0479,3.0523,3.0467,3.0505,3.05,3.0452,3.0395,3.0387,3.0379,3.029,3.0272,3.0256,0,0,0,0,0,0,3.037,3.0409,3.0442,3.0385,3.0391,3.042,3.0384,3.0424,3.0416,3.0424,3.0474,3.0477,3.0424,3.0434,3.0476,3.0378,3.0438,3.0429,3.0372,3.0355,3.034,3.0337,3.0553,0,0,0,0,0,3.0343,3.0323,3.0358,3.0304,3.0306,3.0344,3.0336,3.0367,3.0375,3.0377,3.0395,3.0398,3.0382,3.0369,3.0356,3.0288,3.0291,3.0252,3.0238,3.0226,3.0216,3.0179,3.0161,3.0351,3.0351,3.0351,0,0,3.0284,3.0303,3.0287,3.0285,3.0293,3.0269,3.0346,3.0318,3.03,3.0372,3.0331,3.0344,3.0352,3.0294,3.027,3.0301,3.0165,3.0216,3.0206,3.0203,3.0169,3.0151,3.0135,3.0345,3.0346,3.0347,0,0,3.0164,3.0178,3.0134,3.0142,3.0154,3.0181,3.017,3.0194,3.0206,3.0166,3.022,3.0199,3.017,3.0173,3.017,3.0054,3.0093,3.0048,2.9971,2.9934,2.992,2.9906,2.9862,2.9846,3.0039,3.0039,3.0039,0,3.0088,3.0057,3.0106,3.0075,3.0071,3.0139,3.0094,3.0098,3.0105,3.01,3.0136,3.0101,3.0111,3.0054,3.0026,3.0023,3.0011,3.0044,2.9918,2.9906,2.9894,2.9853,2.9836,3.0033,3.0034,3.0034,3.0035,0,2.9962,2.9939,2.9903,2.9909,2.9903,2.9864,2.9906,2.9893,2.9926,2.9948,2.9906,2.9921,2.9911,2.9901,2.9932,2.9849,2.9867,2.991,2.9971,2.9869,2.9831,2.9816,3.0025,3.0027,3.0029,3.003,0,0,2.9776,2.9814,2.9799,2.9803,2.9823,2.9805,2.9771,2.9764,2.975,2.9753,2.9723,2.9698,2.9738,2.9735,2.9767,2.9736,2.964,2.9782,2.9783,2.9753,2.9547,2.9512,2.9493,2.9668,2.9665,2.9663,2.9545,0,2.966,2.9604,2.9648,2.9582,2.9561,2.9626,2.9595,2.9603,2.9624,2.9608,2.963,2.961,2.9666,2.9665,2.9637,2.9657,2.9599,2.9667,2.9638,2.9636,2.963,2.9474,2.9437,2.9325,2.9531,2.9529,2.9527,0,2.9516,2.9514,2.9447,2.9473,2.9465,2.9437,2.9434,2.9419,2.9429,2.9446,2.9444,2.9485,2.9451,2.9514,2.9466,2.9511,2.9503,2.9511,2.9508,2.9504,2.9572,2.9462,2.929,2.9272,2.9504,2.9506,2.9508,0,2.9384,2.9366,2.9323,2.9325,2.9354,2.9332,2.9343,2.9357,2.935,2.9347,2.9343,2.9335,2.933,2.9323,2.936,2.9403,2.9306,2.9373,2.9317,2.9316,2.929,2.9291,2.9111,2.929,2.929,2.9291,2.9291,0,2.9247,2.9202,2.9264,2.9237,2.9189,2.9241,2.9191,2.9209,2.9221,2.9197,2.9254,2.923,2.9283,2.9264,2.9293,2.9247,2.9246,2.9257,2.9264,2.9249,2.9247,2.9241,2.9249,2.9286,2.9287,2.9288,2.9289,0,2.9089,2.9129,2.9087,2.9119,2.9126,2.9089,2.9116,2.9091,2.9117,2.9087,2.9083,2.9122,2.9103,2.9141,2.9126,2.9146,2.9081,2.9103,2.9078,2.9083,2.9024,2.9027,2.8831,2.8807,2.9004,2.9002,2.9001,0,2.8997,2.8965,2.8995,2.8984,2.8992,2.8975,2.8969,2.9019,2.9009,2.902,2.8993,2.898,2.8972,2.8938,2.8964,2.8953,2.8973,2.8905,2.8971,2.8957,2.8968,2.8968,2.8964,2.889,2.8887,2.8885,2.8884,0,2.8829,2.8851,2.8841,2.8838,2.883,2.883,2.8833,2.8821,2.8874,2.8861,2.8843,2.8837,2.8824,2.8808,2.8804,2.8814,2.8856,2.8864,2.885,2.8832,2.8818,2.8822,2.9037,2.8867,2.8868,2.887,2.8871,2.8871,2.8699,2.8674,2.8691,2.8678,2.8686,2.8689,2.8667,2.8692,2.8679,2.8673,2.8704,2.8679,2.8691,2.869,2.8695,2.8676,2.8706,2.8686,2.868,2.8674,2.8663,2.8825,2.8675,2.8676,2.8676,2.8677,2.8677,0,2.8532,2.8547,2.8535,2.8539,2.8528,2.8574,2.858,2.8568,2.8546,2.8555,2.8546,2.8526,2.8512,2.8538,2.8528,2.8507,2.8526,2.8503,2.8503,2.8504,2.8638,2.865,2.8487,2.8487,2.8487,2.8487,2.8487,2.8487,2.8443,2.8401,2.8425,2.8388,2.8403,2.8381,2.8381,2.8383,2.839,2.8365,2.8355,2.8374,2.8389,2.8381,2.837,2.8378,2.837,2.8338,2.8352,2.8476,2.8495,2.8512,2.8523,2.8337,2.8337,2.822,2.8219,2.8218]}]]